| time (UTC) | temp F | wind direction | speed MPH | gust MPH | rain 1hr in | rain 24hr in | rain mn in | humidity % | barometer mb |
| 20260503173747 | 60 | 261 | 11.0 | 21.0 | 0.00 | 0.00 | 0.00 | 36 | 1016.5 |
| 20260503173241 | 60 | 234 | 11.0 | 21.0 | 0.00 | 0.00 | 0.00 | 35 | 1016.5 |
| 20260503172735 | 59 | 286 | 11.0 | 19.0 | 0.00 | 0.00 | 0.00 | 36 | 1016.5 |
| 20260503172229 | 59 | 252 | 10.0 | 18.0 | 0.00 | 0.00 | 0.00 | 35 | 1016.7 |
| 20260503171719 | 59 | 263 | 10.0 | 18.0 | 0.00 | 0.00 | 0.00 | 37 | 1016.5 |
| 20260503171217 | 59 | 238 | 13.0 | 20.0 | 0.00 | 0.00 | 0.00 | 37 | 1016.7 |
| 20260503170936 | 59 | 222 | 13.0 | 22.0 | 0.00 | 0.00 | 0.00 | 35 | 1016.8 |
| 20260503170206 | 60 | 259 | 12.0 | 19.0 | 0.00 | 0.00 | 0.00 | 35 | 1016.8 |
| 20260503150444 | 56 | 262 | 10.0 | 19.0 | 0.00 | 0.00 | 0.00 | 41 | 1018.5 |
| 20260503131224 | 47 | 232 | 5.0 | 8.0 | 0.00 | 0.00 | 0.00 | 66 | 1019.0 |
| 20260503130722 | 46 | 240 | 5.0 | 8.0 | 0.00 | 0.00 | 0.00 | 66 | 1019.0 |
| 20260503130211 | 45 | 230 | 6.0 | 8.0 | 0.00 | 0.00 | 0.00 | 66 | 1019.0 |
| 20260503110630 | 38 | 194 | 2.0 | 4.0 | 0.00 | 0.00 | 0.00 | 73 | 1018.2 |
| 20260503110118 | 38 | 198 | 3.0 | 6.0 | 0.00 | 0.00 | 0.00 | 72 | 1018.1 |
| 20260503081017 | 41 | 242 | 3.0 | 5.0 | 0.00 | 0.00 | 0.00 | 64 | 1017.7 |
| 20260503080735 | 41 | 244 | 3.0 | 6.0 | 0.00 | 0.00 | 0.00 | 62 | 1017.8 |
| 20260503072501 | 40 | 254 | 4.0 | 5.0 | 0.00 | 0.00 | 0.00 | 69 | 1017.8 |
| 20260503072000 | 41 | 260 | 4.0 | 6.0 | 0.00 | 0.00 | 0.00 | 68 | 1017.8 |
| 20260503071501 | 41 | 252 | 3.0 | 6.0 | 0.00 | 0.00 | 0.00 | 69 | 1017.8 |
| 20260503071001 | 41 | 246 | 3.0 | 4.0 | 0.00 | 0.00 | 0.00 | 69 | 1017.9 |
| 20260503070501 | 41 | 242 | 2.0 | 4.0 | 0.00 | 0.00 | 0.00 | 67 | 1017.8 |
| 20260503054937 | 43 | 244 | 3.0 | 5.0 | 0.00 | 0.00 | 0.00 | 64 | 1018.2 |
| 20260503054645 | 43 | 245 | 4.0 | 4.0 | 0.00 | 0.00 | 0.00 | 61 | 1018.2 |
| 20260503053916 | 43 | 249 | 3.0 | 4.0 | 0.00 | 0.00 | 0.00 | 62 | 1018.3 |
| 20260503053410 | 43 | 248 | 3.0 | 4.0 | 0.00 | 0.00 | 0.00 | 62 | 1018.4 |
| 20260503052900 | 43 | 251 | 3.0 | 4.0 | 0.00 | 0.00 | 0.00 | 59 | 1018.4 |
| 20260503052356 | 43 | 252 | 3.0 | 4.0 | 0.00 | 0.00 | 0.00 | 60 | 1018.4 |
| 20260503052109 | 43 | 253 | 3.0 | 4.0 | 0.00 | 0.00 | 0.00 | 62 | 1018.4 |
| 20260503051602 | 43 | 246 | 3.0 | 4.0 | 0.00 | 0.00 | 0.00 | 63 | 1018.4 |
| 20260503050830 | 42 | 248 | 3.0 | 4.0 | 0.00 | 0.00 | 0.00 | 63 | 1018.4 |
| 20260503050324 | 42 | 260 | 4.0 | 5.0 | 0.00 | 0.00 | 0.00 | 64 | 1018.5 |
| 20260503045812 | 42 | 261 | 4.0 | 5.0 | 0.00 | 0.00 | 0.00 | 64 | 1018.5 |
| 20260503045310 | 42 | 270 | 4.0 | 4.0 | 0.00 | 0.00 | 0.00 | 65 | 1018.5 |
| 20260503045023 | 42 | 260 | 3.0 | 4.0 | 0.00 | 0.00 | 0.00 | 65 | 1018.4 |
| 20260503044524 | 42 | 254 | 3.0 | 4.0 | 0.00 | 0.00 | 0.00 | 66 | 1018.4 |
| 20260503043752 | 42 | 259 | 3.0 | 4.0 | 0.00 | 0.00 | 0.00 | 65 | 1018.4 |
| 20260503043247 | 43 | 262 | 3.0 | 4.0 | 0.00 | 0.00 | 0.00 | 64 | 1018.3 |
| 20260503042742 | 44 | 256 | 3.0 | 3.0 | 0.00 | 0.00 | 0.00 | 61 | 1018.2 |
| 20260503042231 | 44 | 254 | 3.0 | 3.0 | 0.00 | 0.00 | 0.00 | 59 | 1018.2 |
| 20260503041727 | 44 | 259 | 3.0 | 3.0 | 0.00 | 0.00 | 0.00 | 60 | 1018.1 |
| 20260503041226 | 44 | 260 | 3.0 | 3.0 | 0.00 | 0.00 | 0.00 | 59 | 1018.1 |
| 20260503040726 | 44 | 262 | 2.0 | 3.0 | 0.00 | 0.00 | 0.00 | 61 | 1018.1 |
| 20260503040435 | 44 | 254 | 2.0 | 2.0 | 0.00 | 0.00 | 0.00 | 60 | 1018.1 |
| 20260503040318 | 44 | 261 | 2.0 | 3.0 | 0.00 | 0.00 | 0.00 | 60 | 1018.1 |
| 20260503035223 | 45 | 257 | 2.0 | 3.0 | 0.00 | 0.00 | 0.00 | 61 | 1018.2 |
| 20260503034724 | 45 | 254 | 2.0 | 3.0 | 0.00 | 0.00 | 0.00 | 59 | 1018.2 |
| 20260503034224 | 45 | 257 | 1.0 | 2.0 | 0.00 | 0.00 | 0.00 | 58 | 1018.2 |
| 20260503033724 | 46 | 265 | 1.0 | 2.0 | 0.00 | 0.00 | 0.00 | 54 | 1018.2 |
| 20260503033223 | 46 | 265 | 1.0 | 2.0 | 0.00 | 0.00 | 0.00 | 50 | 1018.2 |
| 20260503032942 | 47 | 265 | 1.0 | 2.0 | 0.00 | 0.00 | 0.00 | 48 | 1018.1 |
| 20260503032219 | 47 | 336 | 1.0 | 2.0 | 0.00 | 0.00 | 0.00 | 46 | 1018.2 |
| 20260503031708 | 47 | 347 | 2.0 | 2.0 | 0.00 | 0.00 | 0.00 | 45 | 1018.3 |
| 20260503031208 | 47 | 0 | 2.0 | 2.0 | 0.00 | 0.00 | 0.00 | 45 | 1018.3 |
| 20260503030708 | 47 | 9 | 2.0 | 2.0 | 0.00 | 0.00 | 0.00 | 45 | 1018.3 |
| 20260503030208 | 47 | 11 | 2.0 | 2.0 | 0.00 | 0.00 | 0.00 | 46 | 1018.3 |
| 20260503025708 | 47 | 0 | 2.0 | 2.0 | 0.00 | 0.00 | 0.00 | 46 | 1018.2 |
| 20260503025417 | 47 | 355 | 2.0 | 2.0 | 0.00 | 0.00 | 0.00 | 45 | 1018.2 |
| 20260503025259 | 47 | 0 | 2.0 | 2.0 | 0.00 | 0.00 | 0.00 | 46 | 1018.3 |
| 20260503024208 | 47 | 0 | 2.0 | 2.0 | 0.00 | 0.00 | 0.00 | 46 | 1018.2 |
| 20260503023707 | 47 | 5 | 2.0 | 3.0 | 0.00 | 0.00 | 0.00 | 47 | 1018.1 |
| 20260503023429 | 47 | 355 | 2.0 | 3.0 | 0.00 | 0.00 | 0.00 | 46 | 1018.1 |
| 20260503022651 | 47 | 13 | 2.0 | 3.0 | 0.00 | 0.00 | 0.00 | 47 | 1018.1 |
| 20260503022151 | 47 | 349 | 2.0 | 3.0 | 0.00 | 0.00 | 0.00 | 46 | 1018.0 |
| 20260503021652 | 47 | 0 | 2.0 | 3.0 | 0.00 | 0.00 | 0.00 | 46 | 1018.0 |
| 20260503021151 | 47 | 12 | 2.0 | 3.0 | 0.00 | 0.00 | 0.00 | 46 | 1018.0 |
| 20260503020652 | 47 | 9 | 2.0 | 3.0 | 0.00 | 0.00 | 0.00 | 47 | 1018.0 |
| 20260503020414 | 47 | 0 | 2.0 | 3.0 | 0.00 | 0.00 | 0.00 | 46 | 1017.9 |
| 20260503015652 | 47 | 22 | 2.0 | 3.0 | 0.00 | 0.00 | 0.00 | 47 | 1017.9 |
| 20260503015151 | 47 | 14 | 2.0 | 3.0 | 0.00 | 0.00 | 0.00 | 47 | 1017.8 |
| 20260503014652 | 47 | 19 | 2.0 | 3.0 | 0.00 | 0.00 | 0.00 | 47 | 1017.7 |
| 20260503014147 | 47 | 17 | 2.0 | 3.0 | 0.00 | 0.00 | 0.00 | 47 | 1017.7 |
| 20260503013636 | 47 | 13 | 2.0 | 3.0 | 0.00 | 0.00 | 0.00 | 46 | 1017.6 |
| 20260503013403 | 47 | 36 | 1.0 | 3.0 | 0.00 | 0.00 | 0.00 | 46 | 1017.6 |
| 20260503012635 | 47 | 32 | 1.0 | 2.0 | 0.00 | 0.00 | 0.00 | 46 | 1017.5 |
| 20260503012136 | 47 | 28 | 1.0 | 3.0 | 0.00 | 0.00 | 0.00 | 46 | 1017.5 |
| 20260503011636 | 48 | 36 | 2.0 | 3.0 | 0.00 | 0.00 | 0.00 | 46 | 1017.5 |
| 20260503011136 | 48 | 30 | 2.0 | 4.0 | 0.00 | 0.00 | 0.00 | 46 | 1017.4 |
| 20260503010636 | 48 | 25 | 2.0 | 5.0 | 0.00 | 0.00 | 0.00 | 47 | 1017.4 |
| 20260503010135 | 48 | 24 | 3.0 | 5.0 | 0.00 | 0.00 | 0.00 | 46 | 1017.3 |
| 20260503005859 | 48 | 15 | 2.0 | 5.0 | 0.00 | 0.00 | 0.00 | 45 | 1017.4 |
| 20260503005130 | 49 | 13 | 2.0 | 5.0 | 0.00 | 0.00 | 0.00 | 46 | 1017.3 |
| 20260503004617 | 49 | 0 | 2.0 | 5.0 | 0.00 | 0.00 | 0.00 | 45 | 1017.3 |
| 20260503004326 | 49 | 9 | 2.0 | 3.0 | 0.00 | 0.00 | 0.00 | 45 | 1017.3 |
| 20260503003559 | 49 | 350 | 2.0 | 5.0 | 0.00 | 0.00 | 0.00 | 44 | 1017.3 |
| 20260503003100 | 50 | 355 | 2.0 | 5.0 | 0.00 | 0.00 | 0.00 | 43 | 1017.3 |
| 20260503002825 | 50 | 40 | 3.0 | 5.0 | 0.00 | 0.00 | 0.00 | 42 | 1017.2 |
| 20260503002100 | 50 | 5 | 3.0 | 6.0 | 0.00 | 0.00 | 0.00 | 42 | 1017.2 |
| 20260503001600 | 50 | 11 | 2.0 | 6.0 | 0.00 | 0.00 | 0.00 | 43 | 1017.1 |
| 20260503001100 | 50 | 0 | 2.0 | 8.0 | 0.00 | 0.00 | 0.00 | 43 | 1017.0 |
| 20260503000600 | 51 | 19 | 3.0 | 8.0 | 0.00 | 0.00 | 0.00 | 42 | 1017.0 |
| 20260503000100 | 51 | 91 | 3.0 | 8.0 | 0.00 | 0.00 | 0.00 | 42 | 1016.9 |
| 20260502235559 | 51 | 36 | 5.0 | 9.0 | 0.00 | 0.00 | 0.00 | 40 | 1016.9 |
| 20260502235319 | 51 | 17 | 3.0 | 9.0 | 0.00 | 0.00 | 0.00 | 40 | 1016.9 |
| 20260502234547 | 52 | 355 | 3.0 | 11.0 | 0.00 | 0.00 | 0.00 | 39 | 1016.9 |
| 20260502234035 | 52 | 32 | 4.0 | 11.0 | 0.00 | 0.00 | 0.00 | 39 | 1016.9 |
| 20260502233534 | 52 | 23 | 5.0 | 12.0 | 0.00 | 0.00 | 0.00 | 40 | 1016.9 |
| 20260502233029 | 52 | 25 | 5.0 | 12.0 | 0.00 | 0.00 | 0.00 | 39 | 1016.9 |
| 20260502232523 | 52 | 43 | 4.0 | 9.0 | 0.00 | 0.00 | 0.00 | 39 | 1016.9 |
| 20260502232017 | 52 | 93 | 4.0 | 9.0 | 0.00 | 0.00 | 0.00 | 41 | 1016.9 |
| 20260502231506 | 51 | 13 | 3.0 | 9.0 | 0.00 | 0.00 | 0.00 | 42 | 1016.9 |
| 20260502231003 | 51 | 34 | 3.0 | 8.0 | 0.00 | 0.00 | 0.00 | 42 | 1016.9 |
| 20260502225948 | 51 | 26 | 5.0 | 10.0 | 0.00 | 0.00 | 0.00 | 41 | 1016.9 |
| 20260502225442 | 52 | 30 | 6.0 | 10.0 | 0.00 | 0.00 | 0.00 | 40 | 1016.9 |
| 20260502225206 | 52 | 325 | 6.0 | 10.0 | 0.00 | 0.00 | 0.00 | 39 | 1016.8 |
| 20260502224425 | 52 | 28 | 7.0 | 13.0 | 0.00 | 0.00 | 0.00 | 40 | 1016.8 |
| 20260502223924 | 53 | 0 | 5.0 | 13.0 | 0.00 | 0.00 | 0.00 | 37 | 1016.8 |
| 20260502223418 | 52 | 336 | 4.0 | 9.0 | 0.00 | 0.00 | 0.00 | 38 | 1016.7 |
| 20260502223403 | 52 | 11 | 5.0 | 11.0 | 0.00 | 0.00 | 0.00 | 38 | 1016.8 |
| 20260502222407 | 52 | 334 | 5.0 | 11.0 | 0.00 | 0.00 | 0.00 | 39 | 1016.8 |
| 20260502222116 | 52 | 14 | 5.0 | 13.0 | 0.00 | 0.00 | 0.00 | 39 | 1016.7 |
| 20260502221354 | 52 | 297 | 5.0 | 13.0 | 0.00 | 0.00 | 0.00 | 40 | 1016.7 |
| 20260502221100 | 52 | 103 | 4.0 | 11.0 | 0.00 | 0.00 | 0.00 | 38 | 1016.7 |
| 20260502220607 | 52 | 44 | 4.0 | 9.0 | 0.00 | 0.00 | 0.00 | 41 | 1016.7 |
| 20260502215837 | 53 | 327 | 4.0 | 11.0 | 0.00 | 0.00 | 0.00 | 40 | 1016.7 |
| 20260502215331 | 53 | 61 | 5.0 | 11.0 | 0.00 | 0.00 | 0.00 | 39 | 1016.7 |
| 20260502214825 | 54 | 56 | 4.0 | 13.0 | 0.00 | 0.00 | 0.00 | 38 | 1016.7 |
| 20260502214541 | 54 | 355 | 5.0 | 13.0 | 0.00 | 0.00 | 0.00 | 39 | 1016.7 |
| 20260502213813 | 55 | 44 | 6.0 | 15.0 | 0.00 | 0.00 | 0.00 | 38 | 1016.6 |
| 20260502213307 | 54 | 26 | 6.0 | 15.0 | 0.00 | 0.00 | 0.00 | 37 | 1016.5 |
| 20260502212754 | 54 | 336 | 7.0 | 14.0 | 0.00 | 0.00 | 0.00 | 38 | 1016.5 |
| 20260502212251 | 54 | 348 | 6.0 | 14.0 | 0.00 | 0.00 | 0.00 | 38 | 1016.6 |
| 20260502211744 | 53 | 348 | 5.0 | 14.0 | 0.00 | 0.00 | 0.00 | 39 | 1016.5 |
| 20260502211233 | 53 | 291 | 6.0 | 14.0 | 0.00 | 0.00 | 0.00 | 39 | 1016.6 |
| 20260502210732 | 53 | 59 | 6.0 | 13.0 | 0.00 | 0.00 | 0.00 | 39 | 1016.6 |
| 20260502210448 | 53 | 39 | 7.0 | 13.0 | 0.00 | 0.00 | 0.00 | 39 | 1016.5 |
| 20260502205719 | 53 | 337 | 8.0 | 17.0 | 0.00 | 0.00 | 0.00 | 37 | 1016.6 |
| 20260502205213 | 53 | 350 | 6.0 | 17.0 | 0.00 | 0.00 | 0.00 | 36 | 1016.6 |
| 20260502204704 | 55 | 344 | 4.0 | 12.0 | 0.00 | 0.00 | 0.00 | 38 | 1016.5 |
| 20260502204158 | 55 | 9 | 4.0 | 11.0 | 0.00 | 0.00 | 0.00 | 39 | 1016.6 |
| 20260502203648 | 54 | 257 | 5.0 | 11.0 | 0.00 | 0.00 | 0.00 | 39 | 1016.6 |
| 20260502203142 | 54 | 304 | 4.0 | 12.0 | 0.00 | 0.00 | 0.00 | 38 | 1016.6 |
| 20260502202639 | 53 | 346 | 4.0 | 12.0 | 0.00 | 0.00 | 0.00 | 38 | 1016.7 |
| 20260502202133 | 53 | 303 | 5.0 | 11.0 | 0.00 | 0.00 | 0.00 | 39 | 1016.7 |
| 20260502201628 | 53 | 18 | 6.0 | 18.0 | 0.00 | 0.00 | 0.00 | 38 | 1016.8 |
| 20260502201120 | 55 | 301 | 5.0 | 18.0 | 0.00 | 0.00 | 0.00 | 38 | 1016.7 |
| 20260502200615 | 54 | 325 | 4.0 | 10.0 | 0.00 | 0.00 | 0.00 | 39 | 1016.7 |
| 20260502195558 | 54 | 315 | 4.0 | 13.0 | 0.00 | 0.00 | 0.00 | 37 | 1016.8 |
| 20260502195049 | 54 | 313 | 5.0 | 11.0 | 0.00 | 0.00 | 0.00 | 38 | 1016.9 |
| 20260502194545 | 53 | 30 | 5.0 | 11.0 | 0.00 | 0.00 | 0.00 | 40 | 1016.9 |
| 20260502194039 | 54 | 317 | 5.0 | 12.0 | 0.00 | 0.00 | 0.00 | 38 | 1016.9 |
| 20260502193533 | 54 | 355 | 6.0 | 12.0 | 0.00 | 0.00 | 0.00 | 43 | 1016.9 |
| 20260502193021 | 53 | 278 | 6.0 | 14.0 | 0.00 | 0.00 | 0.00 | 41 | 1017.0 |
| 20260502192520 | 54 | 36 | 6.0 | 14.0 | 0.00 | 0.00 | 0.00 | 41 | 1017.0 |
| 20260502192013 | 54 | 33 | 6.0 | 12.0 | 0.00 | 0.00 | 0.00 | 40 | 1017.1 |
| 20260502191507 | 53 | 32 | 6.0 | 14.0 | 0.00 | 0.00 | 0.00 | 36 | 1017.1 |
| 20260502191225 | 53 | 337 | 6.0 | 15.0 | 0.00 | 0.00 | 0.00 | 36 | 1017.2 |
| 20260502190720 | 53 | 329 | 7.0 | 15.0 | 0.00 | 0.00 | 0.00 | 40 | 1017.2 |
| 20260502185950 | 53 | 37 | 7.0 | 15.0 | 0.00 | 0.00 | 0.00 | 37 | 1017.2 |
| 20260502185659 | 53 | 281 | 6.0 | 12.0 | 0.00 | 0.00 | 0.00 | 37 | 1017.1 |
| 20260502184937 | 53 | 343 | 6.0 | 15.0 | 0.00 | 0.00 | 0.00 | 39 | 1017.2 |
| 20260502184431 | 53 | 326 | 6.0 | 15.0 | 0.00 | 0.00 | 0.00 | 37 | 1017.2 |
| 20260502183927 | 54 | 22 | 4.0 | 13.0 | 0.00 | 0.00 | 0.00 | 41 | 1017.2 |
| 20260502183421 | 54 | 262 | 7.0 | 18.0 | 0.00 | 0.00 | 0.00 | 37 | 1017.3 |
| 20260502183137 | 53 | 292 | 9.0 | 18.0 | 0.00 | 0.00 | 0.00 | 37 | 1017.3 |
| 20260502182408 | 53 | 339 | 6.0 | 16.0 | 0.00 | 0.00 | 0.00 | 39 | 1017.4 |
| 20260502182122 | 53 | 0 | 6.0 | 10.0 | 0.00 | 0.00 | 0.00 | 38 | 1017.4 |
| 20260502181356 | 53 | 19 | 7.0 | 16.0 | 0.00 | 0.00 | 0.00 | 40 | 1017.4 |
| 20260502180849 | 52 | 25 | 7.0 | 16.0 | 0.00 | 0.00 | 0.00 | 40 | 1017.5 |
| 20260502180343 | 53 | 0 | 5.0 | 14.0 | 0.00 | 0.00 | 0.00 | 37 | 1017.5 |